Time,TemperatureF,DewpointF,PressureIn,WindDirection,WindDirectionDegrees,WindSpeedMPH,WindSpeedGustMPH,Humidity,HourlyPrecipIn,Conditions,Clouds,dailyrainin,SoftwareType,DateUTC
2013-08-12 00:00:00,68.5,65.1,30.33,West,270,0.6,2.0,89,0.00,,,0.17,VWS V13.01,2013-08-12 04:00:00,
2013-08-12 00:01:00,68.5,65.1,30.33,West,270,0.6,2.0,89,0.00,,,0.00,VWS V13.01,2013-08-12 04:01:00,
2013-08-12 00:02:00,68.5,65.1,30.33,West,270,0.6,2.0,89,0.00,,,0.00,VWS V13.01,2013-08-12 04:02:00,
2013-08-12 00:04:00,68.5,65.1,30.33,West,270,0.6,2.0,89,0.00,,,0.00,VWS V13.01,2013-08-12 04:04:00,
2013-08-12 00:09:00,68.5,65.1,30.33,North,0,0.6,2.0,89,0.00,,,0.00,VWS V13.01,2013-08-12 04:09:00,
2013-08-12 00:14:00,68.5,64.9,30.34,West,270,0.6,2.0,89,0.00,,,0.00,VWS V13.01,2013-08-12 04:14:00,
2013-08-12 00:19:00,68.3,64.9,30.34,West,270,0.6,2.0,89,0.00,,,0.00,VWS V13.01,2013-08-12 04:19:00,
2013-08-12 00:24:00,68.3,64.9,30.34,West,270,0.6,2.0,89,0.00,,,0.00,VWS V13.01,2013-08-12 04:24:00,
2013-08-12 00:29:00,68.1,64.9,30.34,West,270,0.6,2.0,89,0.00,,,0.00,VWS V13.01,2013-08-12 04:29:00,
2013-08-12 00:34:00,68.1,64.7,30.34,West,270,0.6,2.0,89,0.00,,,0.00,VWS V13.01,2013-08-12 04:34:00,
2013-08-12 00:39:00,68.1,64.7,30.34,West,270,0.6,2.0,89,0.00,,,0.00,VWS V13.01,2013-08-12 04:39:00,
2013-08-12 00:44:00,68.1,64.7,30.34,West,270,0.6,2.0,89,0.00,,,0.00,VWS V13.01,2013-08-12 04:44:00,
2013-08-12 00:49:00,68.1,64.7,30.34,West,270,0.6,2.0,89,0.00,,,0.00,VWS V13.01,2013-08-12 04:49:00,
2013-08-12 00:55:00,68.1,64.7,30.34,West,270,0.6,2.0,89,0.00,,,0.00,VWS V13.01,2013-08-12 04:55:00,
2013-08-12 01:00:00,68.1,64.6,30.34,West,270,0.6,2.0,89,0.00,,,0.00,VWS V13.01,2013-08-12 05:00:00,
2013-08-12 01:05:00,67.8,64.7,30.35,West,270,0.6,2.0,88,0.00,,,0.00,VWS V13.01,2013-08-12 05:05:00,
2013-08-12 01:10:00,68.0,64.6,30.34,West,270,0.6,2.0,89,0.00,,,0.00,VWS V13.01,2013-08-12 05:10:00,
2013-08-12 01:15:00,68.0,64.1,30.35,West,270,0.6,2.0,89,0.00,,,0.00,VWS V13.01,2013-08-12 05:15:00,
2013-08-12 01:20:00,67.8,64.1,30.35,West,270,0.6,2.0,88,0.00,,,0.00,VWS V13.01,2013-08-12 05:20:00,
2013-08-12 01:25:00,67.8,64.1,30.35,West,270,0.6,2.0,88,0.00,,,0.00,VWS V13.01,2013-08-12 05:25:00,
2013-08-12 01:30:00,67.8,64.1,30.35,West,270,0.6,2.0,88,0.00,,,0.00,VWS V13.01,2013-08-12 05:30:00,
2013-08-12 01:35:00,67.8,64.1,30.34,WSW,248,0.6,2.0,88,0.00,,,0.00,VWS V13.01,2013-08-12 05:35:00,
2013-08-12 01:40:00,67.8,64.1,30.35,WSW,248,0.6,2.0,88,0.00,,,0.00,VWS V13.01,2013-08-12 05:40:00,
2013-08-12 01:45:00,67.8,64.1,30.34,WSW,248,0.6,2.0,88,0.00,,,0.00,VWS V13.01,2013-08-12 05:45:00,
2013-08-12 01:50:00,67.8,64.1,30.34,WSW,248,0.6,2.0,88,0.00,,,0.00,VWS V13.01,2013-08-12 05:50:00,
2013-08-12 01:55:00,67.8,64.1,30.34,West,270,0.6,2.0,88,0.00,,,0.00,VWS V13.01,2013-08-12 05:55:00,
2013-08-12 02:00:00,67.8,64.1,30.34,NNW,338,0.6,2.0,88,0.00,,,0.00,VWS V13.01,2013-08-12 06:00:00,
2013-08-12 02:05:00,67.8,64.1,30.34,WNW,292,0.6,2.0,88,0.00,,,0.00,VWS V13.01,2013-08-12 06:05:00,
2013-08-12 02:10:00,67.8,63.9,30.34,NW,315,0.6,2.0,88,0.00,,,0.00,VWS V13.01,2013-08-12 06:10:00,
2013-08-12 02:15:00,67.6,63.9,30.34,NW,315,0.6,2.0,88,0.00,,,0.00,VWS V13.01,2013-08-12 06:15:00,
2013-08-12 02:20:00,67.6,63.9,30.35,WSW,248,0.6,2.0,88,0.00,,,0.00,VWS V13.01,2013-08-12 06:20:00,
2013-08-12 02:25:00,67.6,63.9,30.35,West,270,0.6,2.0,88,0.00,,,0.00,VWS V13.01,2013-08-12 06:25:00,
2013-08-12 02:31:00,67.6,63.9,30.34,NW,315,0.6,2.0,88,0.00,,,0.00,VWS V13.01,2013-08-12 06:31:00,
2013-08-12 02:36:00,67.4,63.9,30.34,North,0,0.6,2.0,88,0.00,,,0.00,VWS V13.01,2013-08-12 06:36:00,
2013-08-12 02:41:00,67.2,63.9,30.35,NW,315,0.6,2.0,88,0.00,,,0.00,VWS V13.01,2013-08-12 06:41:00,
2013-08-12 02:46:00,67.2,63.5,30.35,NNW,338,0.6,2.0,88,0.00,,,0.00,VWS V13.01,2013-08-12 06:46:00,
2013-08-12 02:51:00,67.2,63.5,30.34,NNW,338,0.6,2.0,89,0.00,,,0.00,VWS V13.01,2013-08-12 06:51:00,
2013-08-12 02:56:00,67.1,63.8,30.34,NNW,338,0.6,2.0,88,0.00,,,0.00,VWS V13.01,2013-08-12 06:56:00,
2013-08-12 03:01:00,67.1,63.8,30.34,NNW,338,0.6,2.0,89,0.00,,,0.00,VWS V13.01,2013-08-12 07:01:00,
2013-08-12 03:06:00,67.1,63.4,30.34,NNW,338,0.6,2.0,88,0.00,,,0.00,VWS V13.01,2013-08-12 07:06:00,
2013-08-12 03:11:00,67.1,63.8,30.34,NNW,338,0.6,2.0,89,0.00,,,0.00,VWS V13.01,2013-08-12 07:11:00,
2013-08-12 03:16:00,67.1,63.8,30.34,NNW,338,0.6,2.0,88,0.00,,,0.00,VWS V13.01,2013-08-12 07:16:00,
2013-08-12 03:21:00,67.1,63.8,30.34,West,270,0.6,2.0,89,0.02,,,0.02,VWS V13.01,2013-08-12 07:21:00,
2013-08-12 03:26:00,67.1,63.8,30.33,West,270,0.6,2.0,89,0.02,,,0.02,VWS V13.01,2013-08-12 07:26:00,
2013-08-12 03:31:00,66.9,63.6,30.33,WSW,248,0.6,2.0,89,0.02,,,0.02,VWS V13.01,2013-08-12 07:31:00,
2013-08-12 03:36:00,66.9,63.6,30.34,WNW,292,0.6,2.0,89,0.02,,,0.02,VWS V13.01,2013-08-12 07:36:00,
2013-08-12 03:41:00,66.9,63.6,30.34,WNW,292,0.6,2.0,89,0.02,,,0.02,VWS V13.01,2013-08-12 07:41:00,
2013-08-12 03:46:00,66.7,63.6,30.34,West,270,0.6,2.0,89,0.02,,,0.02,VWS V13.01,2013-08-12 07:46:00,
2013-08-12 03:51:00,66.7,63.6,30.34,West,270,0.6,2.0,89,0.02,,,0.02,VWS V13.01,2013-08-12 07:51:00,
2013-08-12 03:56:00,66.7,63.4,30.34,WNW,292,0.6,2.0,89,0.02,,,0.02,VWS V13.01,2013-08-12 07:56:00,
2013-08-12 04:01:00,66.7,63.4,30.34,WNW,292,0.6,2.0,89,0.02,,,0.02,VWS V13.01,2013-08-12 08:01:00,
2013-08-12 04:06:00,66.7,63.2,30.34,WNW,292,0.6,2.0,89,0.02,,,0.02,VWS V13.01,2013-08-12 08:06:00,
2013-08-12 04:12:00,66.5,63.2,30.34,WNW,292,0.6,2.0,89,0.02,,,0.02,VWS V13.01,2013-08-12 08:12:00,
2013-08-12 04:17:00,66.5,63.2,30.34,WNW,292,0.6,2.0,89,0.02,,,0.02,VWS V13.01,2013-08-12 08:17:00,
2013-08-12 04:22:00,66.5,63.2,30.34,WNW,292,0.6,2.0,89,0.00,,,0.02,VWS V13.01,2013-08-12 08:22:00,
2013-08-12 04:27:00,66.3,63.0,30.34,NW,315,0.6,2.0,89,0.00,,,0.02,VWS V13.01,2013-08-12 08:27:00,
2013-08-12 04:32:00,66.3,63.0,30.34,NW,315,0.6,2.0,89,0.00,,,0.02,VWS V13.01,2013-08-12 08:32:00,
2013-08-12 04:37:00,66.3,62.9,30.34,NW,315,0.6,2.0,89,0.00,,,0.02,VWS V13.01,2013-08-12 08:37:00,
2013-08-12 04:42:00,66.2,62.7,30.34,NW,315,0.6,2.0,89,0.00,,,0.02,VWS V13.01,2013-08-12 08:42:00,
2013-08-12 04:47:00,66.0,62.7,30.34,NNW,338,0.6,2.0,89,0.00,,,0.02,VWS V13.01,2013-08-12 08:47:00,
2013-08-12 04:52:00,66.0,62.7,30.34,NNW,338,0.6,2.0,89,0.00,,,0.02,VWS V13.01,2013-08-12 08:52:00,
2013-08-12 04:57:00,66.0,62.7,30.34,NNW,338,0.6,2.0,89,0.00,,,0.02,VWS V13.01,2013-08-12 08:57:00,
2013-08-12 05:02:00,66.0,62.7,30.34,NNW,338,0.6,2.0,89,0.00,,,0.02,VWS V13.01,2013-08-12 09:02:00,
2013-08-12 05:07:00,66.0,62.5,30.34,NNW,338,0.6,2.0,89,0.00,,,0.02,VWS V13.01,2013-08-12 09:07:00,
2013-08-12 05:12:00,65.8,62.5,30.34,NNW,338,0.6,2.0,89,0.00,,,0.02,VWS V13.01,2013-08-12 09:12:00,
2013-08-12 05:17:00,65.8,62.5,30.34,NNW,338,0.6,2.0,89,0.00,,,0.02,VWS V13.01,2013-08-12 09:17:00,
2013-08-12 05:22:00,65.6,62.3,30.34,NNW,338,0.6,2.0,89,0.00,,,0.02,VWS V13.01,2013-08-12 09:22:00,
2013-08-12 05:27:00,65.4,62.1,30.34,NNW,338,0.6,2.0,89,0.00,,,0.02,VWS V13.01,2013-08-12 09:27:00,
2013-08-12 05:32:00,65.4,62.1,30.34,NNW,338,0.6,2.0,89,0.00,,,0.02,VWS V13.01,2013-08-12 09:32:00,
2013-08-12 05:37:00,65.4,62.1,30.34,NNW,338,0.6,2.0,89,0.00,,,0.02,VWS V13.01,2013-08-12 09:37:00,
2013-08-12 05:42:00,65.4,62.1,30.34,NNW,338,0.6,2.0,89,0.00,,,0.02,VWS V13.01,2013-08-12 09:42:00,
2013-08-12 05:47:00,65.3,62.1,30.34,West,270,0.6,2.0,89,0.00,,,0.02,VWS V13.01,2013-08-12 09:47:00,
2013-08-12 05:52:00,65.3,62.0,30.34,West,270,0.6,2.0,89,0.00,,,0.02,VWS V13.01,2013-08-12 09:52:00,
2013-08-12 05:57:00,65.3,62.0,30.34,West,270,0.6,2.0,89,0.00,,,0.02,VWS V13.01,2013-08-12 09:57:00,
2013-08-12 06:02:00,65.3,61.8,30.34,West,270,0.6,2.0,89,0.00,,,0.02,VWS V13.01,2013-08-12 10:02:00,
2013-08-12 06:07:00,65.1,61.8,30.34,West,270,0.6,2.0,89,0.00,,,0.02,VWS V13.01,2013-08-12 10:07:00,
2013-08-12 06:12:00,65.1,61.8,30.35,West,270,0.6,2.0,89,0.00,,,0.02,VWS V13.01,2013-08-12 10:12:00,
2013-08-12 06:17:00,64.9,61.6,30.35,West,270,0.6,2.0,89,0.00,,,0.02,VWS V13.01,2013-08-12 10:17:00,
2013-08-12 06:22:00,64.9,61.6,30.34,West,270,0.6,2.0,89,0.00,,,0.02,VWS V13.01,2013-08-12 10:22:00,
2013-08-12 06:27:00,64.9,61.8,30.34,West,270,0.6,2.0,89,0.00,,,0.02,VWS V13.01,2013-08-12 10:27:00,
2013-08-12 06:32:00,65.1,61.8,30.34,West,270,0.6,2.0,89,0.00,,,0.02,VWS V13.01,2013-08-12 10:32:00,
2013-08-12 06:37:00,65.1,61.8,30.34,West,270,0.6,2.0,89,0.00,,,0.02,VWS V13.01,2013-08-12 10:37:00,
2013-08-12 06:42:00,65.1,61.6,30.35,West,270,0.6,2.0,89,0.00,,,0.02,VWS V13.01,2013-08-12 10:42:00,
2013-08-12 06:47:00,64.9,61.6,30.34,West,270,0.6,2.0,89,0.00,,,0.02,VWS V13.01,2013-08-12 10:47:00,
2013-08-12 06:52:00,64.9,61.6,30.34,West,270,0.6,2.0,89,0.00,,,0.02,VWS V13.01,2013-08-12 10:52:00,
2013-08-12 06:57:00,64.9,61.6,30.35,West,270,0.6,2.0,89,0.00,,,0.02,VWS V13.01,2013-08-12 10:57:00,
2013-08-12 07:02:00,64.9,61.6,30.35,West,270,0.6,2.0,89,0.00,,,0.02,VWS V13.01,2013-08-12 11:02:00,
2013-08-12 07:07:00,64.9,61.6,30.35,West,270,0.6,2.0,89,0.00,,,0.02,VWS V13.01,2013-08-12 11:07:00,
2013-08-12 07:12:00,64.7,61.6,30.35,West,270,0.6,2.0,89,0.00,,,0.02,VWS V13.01,2013-08-12 11:12:00,
2013-08-12 07:17:00,64.9,61.6,30.35,WSW,248,0.6,2.0,89,0.00,,,0.02,VWS V13.01,2013-08-12 11:17:00,
2013-08-12 07:22:00,64.9,61.6,30.35,WSW,248,0.6,2.0,89,0.00,,,0.02,VWS V13.01,2013-08-12 11:22:00,
2013-08-12 07:27:00,65.1,61.6,30.34,WSW,248,0.6,2.0,89,0.00,,,0.02,VWS V13.01,2013-08-12 11:27:00,
2013-08-12 07:32:00,65.1,61.8,30.34,WSW,248,0.6,2.0,89,0.00,,,0.02,VWS V13.01,2013-08-12 11:32:00,
2013-08-12 07:37:00,65.1,61.8,30.35,WSW,248,0.6,2.0,89,0.00,,,0.02,VWS V13.01,2013-08-12 11:37:00,
2013-08-12 07:42:00,65.1,61.8,30.35,WSW,248,0.6,2.0,89,0.00,,,0.02,VWS V13.01,2013-08-12 11:42:00,
2013-08-12 07:47:00,65.1,61.8,30.35,WSW,248,0.6,2.0,89,0.00,,,0.02,VWS V13.01,2013-08-12 11:47:00,
2013-08-12 07:52:00,65.1,61.8,30.34,WSW,248,0.6,2.0,89,0.00,,,0.02,VWS V13.01,2013-08-12 11:52:00,
2013-08-12 07:57:00,65.1,61.8,30.34,WSW,248,0.6,2.0,89,0.00,,,0.02,VWS V13.01,2013-08-12 11:57:00,
2013-08-12 08:02:00,65.1,61.8,30.35,WSW,248,0.6,2.0,89,0.00,,,0.02,VWS V13.01,2013-08-12 12:02:00,
2013-08-12 08:07:00,65.1,62.0,30.35,WSW,248,0.6,2.0,89,0.00,,,0.02,VWS V13.01,2013-08-12 12:07:00,
2013-08-12 08:12:00,65.3,62.0,30.35,West,270,0.6,2.0,89,0.00,,,0.02,VWS V13.01,2013-08-12 12:12:00,
2013-08-12 08:17:00,65.3,62.0,30.34,WNW,292,0.6,2.0,89,0.00,,,0.02,VWS V13.01,2013-08-12 12:17:00,
2013-08-12 08:22:00,65.3,62.0,30.35,South,180,0.6,2.0,89,0.00,,,0.02,VWS V13.01,2013-08-12 12:22:00,
2013-08-12 08:27:00,65.4,62.0,30.35,SW,225,0.6,2.0,89,0.00,,,0.02,VWS V13.01,2013-08-12 12:27:00,
2013-08-12 08:32:00,65.4,62.1,30.35,SW,225,0.6,2.0,89,0.00,,,0.02,VWS V13.01,2013-08-12 12:32:00,
2013-08-12 08:37:00,65.6,62.3,30.35,SW,225,0.6,2.0,89,0.00,,,0.02,VWS V13.01,2013-08-12 12:37:00,
2013-08-12 08:42:00,65.6,62.5,30.35,WSW,248,0.6,2.0,89,0.00,,,0.02,VWS V13.01,2013-08-12 12:42:00,
2013-08-12 08:47:00,65.8,62.5,30.35,West,270,0.6,2.0,89,0.00,,,0.02,VWS V13.01,2013-08-12 12:47:00,
2013-08-12 08:53:00,66.0,62.7,30.35,West,270,0.6,2.0,89,0.00,,,0.02,VWS V13.01,2013-08-12 12:53:00,
2013-08-12 08:58:00,66.0,62.7,30.35,West,270,0.6,2.0,89,0.00,,,0.02,VWS V13.01,2013-08-12 12:58:00,
2013-08-12 09:03:00,66.3,62.9,30.35,NW,315,0.6,2.0,89,0.00,,,0.02,VWS V13.01,2013-08-12 13:03:00,
2013-08-12 09:08:00,66.3,63.0,30.35,NW,315,0.6,2.0,89,0.00,,,0.02,VWS V13.01,2013-08-12 13:08:00,
2013-08-12 09:13:00,66.5,63.0,30.35,NW,315,0.6,2.0,89,0.00,,,0.02,VWS V13.01,2013-08-12 13:13:00,
2013-08-12 09:18:00,66.3,63.4,30.34,NW,315,0.6,2.0,89,0.00,,,0.02,VWS V13.01,2013-08-12 13:18:00,
2013-08-12 09:23:00,66.7,63.4,30.34,NW,315,0.6,2.0,89,0.00,,,0.02,VWS V13.01,2013-08-12 13:23:00,
2013-08-12 09:28:00,66.7,63.8,30.34,West,270,0.6,2.0,89,0.00,,,0.02,VWS V13.01,2013-08-12 13:28:00,
2013-08-12 09:33:00,67.1,63.8,30.34,WSW,248,0.6,2.0,89,0.00,,,0.02,VWS V13.01,2013-08-12 13:33:00,
2013-08-12 09:38:00,67.2,63.8,30.34,WSW,248,0.6,2.0,89,0.00,,,0.02,VWS V13.01,2013-08-12 13:38:00,
2013-08-12 09:43:00,67.2,64.1,30.34,WSW,248,0.6,2.0,89,0.00,,,0.02,VWS V13.01,2013-08-12 13:43:00,
2013-08-12 09:48:00,67.4,64.2,30.35,WSW,248,0.6,2.0,89,0.00,,,0.02,VWS V13.01,2013-08-12 13:48:00,
2013-08-12 09:53:00,67.6,64.1,30.34,SW,225,0.6,2.0,89,0.00,,,0.02,VWS V13.01,2013-08-12 13:53:00,
2013-08-12 09:58:00,67.8,64.7,30.34,West,270,0.6,2.0,88,0.00,,,0.02,VWS V13.01,2013-08-12 13:58:00,
2013-08-12 10:03:00,68.1,64.9,30.35,WSW,248,0.4,2.0,89,0.00,,SCT005,0.02,VWS V13.01,2013-08-12 14:03:00,
2013-08-12 10:08:00,68.3,64.9,30.35,NW,315,0.4,2.0,89,0.00,,SCT005,0.02,VWS V13.01,2013-08-12 14:08:00,
2013-08-12 10:13:00,68.3,65.1,30.35,WNW,292,0.4,2.0,89,0.00,,SCT005,0.02,VWS V13.01,2013-08-12 14:13:00,
2013-08-12 10:18:00,68.5,65.3,30.34,SSW,202,0.4,2.0,89,0.00,,SCT005,0.02,VWS V13.01,2013-08-12 14:18:00,
2013-08-12 10:23:00,69.0,65.5,30.35,West,270,0.4,2.0,89,0.00,,SCT005,0.02,VWS V13.01,2013-08-12 14:23:00,
2013-08-12 10:28:00,69.2,65.5,30.34,WSW,248,0.6,2.0,89,0.00,,SCT005,0.02,VWS V13.01,2013-08-12 14:28:00,
2013-08-12 10:33:00,69.4,66.2,30.34,WSW,248,3.3,3.3,89,0.00,,SCT005,0.02,VWS V13.01,2013-08-12 14:33:00,
2013-08-12 10:38:00,69.6,66.5,30.34,WSW,248,3.3,3.3,89,0.00,,SCT005,0.02,VWS V13.01,2013-08-12 14:38:00,
2013-08-12 10:43:00,69.9,66.6,30.34,NW,315,3.3,3.3,89,0.00,,CLR,0.02,VWS V13.01,2013-08-12 14:43:00,
2013-08-12 10:48:00,70.8,67.0,30.34,SW,225,3.3,3.3,88,0.00,,CLR,0.02,VWS V13.01,2013-08-12 14:48:00,
2013-08-12 10:53:00,71.0,67.7,30.34,NW,315,3.5,3.5,88,0.00,,CLR,0.02,VWS V13.01,2013-08-12 14:53:00,
2013-08-12 10:58:00,71.7,67.7,30.34,NW,315,2.0,2.0,87,0.00,,CLR,0.02,VWS V13.01,2013-08-12 14:58:00,
2013-08-12 11:03:00,72.1,67.8,30.34,WSW,248,0.2,2.0,87,0.00,,CLR,0.02,VWS V13.01,2013-08-12 15:03:00,
2013-08-12 11:08:00,72.5,68.2,30.35,WNW,292,0.4,2.0,86,0.00,,CLR,0.02,VWS V13.01,2013-08-12 15:08:00,
2013-08-12 11:13:00,72.3,68.0,30.34,NW,315,2.9,2.9,87,0.00,,CLR,0.02,VWS V13.01,2013-08-12 15:13:00,
2013-08-12 11:18:00,72.3,68.2,30.34,West,270,0.8,2.0,87,0.00,,CLR,0.02,VWS V13.01,2013-08-12 15:18:00,
2013-08-12 11:24:00,73.2,68.7,30.34,North,0,3.8,3.8,85,0.00,,CLR,0.02,VWS V13.01,2013-08-12 15:24:00,
2013-08-12 11:29:00,73.5,68.8,30.34,SW,225,2.6,2.6,85,0.00,,CLR,0.02,VWS V13.01,2013-08-12 15:29:00,
2013-08-12 11:34:00,74.1,68.8,30.34,WNW,292,4.2,4.2,83,0.00,,CLR,0.02,VWS V13.01,2013-08-12 15:34:00,
2013-08-12 11:39:00,74.3,68.6,30.34,SW,225,3.1,3.1,83,0.00,,CLR,0.02,VWS V13.01,2013-08-12 15:39:00,
2013-08-12 11:44:00,74.4,68.8,30.34,WSW,248,3.3,3.3,82,0.00,,SCT027,0.02,VWS V13.01,2013-08-12 15:44:00,
2013-08-12 11:49:00,74.4,68.7,30.33,WNW,292,1.3,2.0,82,0.00,,SCT027,0.02,VWS V13.01,2013-08-12 15:49:00,
2013-08-12 11:54:00,75.3,68.7,30.33,NNW,338,3.3,3.3,80,0.00,,SCT027,0.02,VWS V13.01,2013-08-12 15:54:00,
2013-08-12 11:59:00,75.7,69.1,30.33,North,0,3.3,3.3,79,0.00,,SCT027,0.02,VWS V13.01,2013-08-12 15:59:00,
2013-08-12 12:04:00,76.1,69.8,30.33,NE,45,3.3,3.3,79,0.00,,SCT031,0.02,VWS V13.01,2013-08-12 16:04:00,
2013-08-12 12:09:00,76.8,69.5,30.33,NNW,338,3.3,3.3,79,0.00,,SCT031,0.02,VWS V13.01,2013-08-12 16:09:00,
2013-08-12 12:14:00,77.3,69.7,30.32,NNE,22,3.3,3.3,77,0.00,,SCT031,0.02,VWS V13.01,2013-08-12 16:14:00,
2013-08-12 12:19:00,77.9,69.1,30.32,West,270,2.6,2.6,76,0.00,,SCT031,0.02,VWS V13.01,2013-08-12 16:19:00,
2013-08-12 12:24:00,78.0,69.2,30.33,NW,315,0.8,2.0,74,0.00,,SCT031,0.02,VWS V13.01,2013-08-12 16:24:00,
2013-08-12 12:29:00,77.7,69.2,30.32,NW,315,0.8,2.0,75,0.00,,SCT031,0.02,VWS V13.01,2013-08-12 16:29:00,
2013-08-12 12:34:00,77.7,68.8,30.32,West,270,0.8,2.0,75,0.00,,SCT037,0.02,VWS V13.01,2013-08-12 16:34:00,
2013-08-12 12:39:00,77.9,68.8,30.32,WSW,248,0.6,2.0,74,0.00,,SCT037,0.02,VWS V13.01,2013-08-12 16:39:00,
2013-08-12 12:44:00,77.9,68.4,30.32,NNW,338,0.6,2.0,74,0.00,,SCT037,0.02,VWS V13.01,2013-08-12 16:44:00,
2013-08-12 12:49:00,77.5,68.9,30.32,West,270,5.1,5.1,73,0.00,,SCT037,0.02,VWS V13.01,2013-08-12 16:49:00,
2013-08-12 12:54:00,77.5,67.6,30.32,WSW,248,1.1,2.0,73,0.00,,SCT037,0.02,VWS V13.01,2013-08-12 16:54:00,
2013-08-12 12:59:00,77.3,68.2,30.33,WSW,248,4.0,4.0,72,0.00,,SCT037,0.02,VWS V13.01,2013-08-12 16:59:00,
2013-08-12 13:04:00,77.5,68.6,30.32,West,270,4.0,4.0,73,0.00,,CLR,0.02,VWS V13.01,2013-08-12 17:04:00,
2013-08-12 13:09:00,77.9,68.7,30.32,West,270,2.6,2.6,73,0.00,,CLR,0.02,VWS V13.01,2013-08-12 17:09:00,
2013-08-12 13:14:00,78.0,67.8,30.32,North,0,57.0,57.0,73,0.00,,CLR,0.02,VWS V13.01,2013-08-12 17:14:00,
2013-08-12 13:19:00,78.4,67.4,30.32,NW,315,2.0,2.0,70,0.00,,CLR,0.02,VWS V13.01,2013-08-12 17:19:00,
2013-08-12 13:24:00,78.4,67.6,30.32,NW,315,1.7,2.0,69,0.00,,CLR,0.02,VWS V13.01,2013-08-12 17:24:00,
2013-08-12 13:29:00,78.4,67.8,30.32,West,270,1.7,2.0,69,0.00,,CLR,0.02,VWS V13.01,2013-08-12 17:29:00,
2013-08-12 13:34:00,78.6,68.5,30.32,West,270,4.4,4.4,70,0.00,,SCT036,0.02,VWS V13.01,2013-08-12 17:34:00,
2013-08-12 13:39:00,79.3,68.5,30.32,WNW,292,57.0,57.0,67,0.00,,SCT036,0.02,VWS V13.01,2013-08-12 17:39:00,
2013-08-12 13:44:00,79.3,67.4,30.32,WNW,292,57.0,57.0,67,0.00,,SCT048,0.02,VWS V13.01,2013-08-12 17:44:00,
2013-08-12 13:49:00,79.3,67.4,30.32,WNW,292,0.2,2.0,67,0.00,,SCT048,0.02,VWS V13.01,2013-08-12 17:49:00,
2013-08-12 13:54:00,79.3,67.0,30.31,WSW,248,5.8,5.8,67,0.00,,SCT048,0.02,VWS V13.01,2013-08-12 17:54:00,
2013-08-12 13:59:00,79.3,67.2,30.31,North,0,5.8,5.8,67,0.00,,SCT048,0.02,VWS V13.01,2013-08-12 17:59:00,
2013-08-12 14:04:00,79.3,67.2,30.31,NNW,338,5.8,5.8,67,0.00,,SCT044,0.02,VWS V13.01,2013-08-12 18:04:00,
2013-08-12 14:09:00,79.3,66.7,30.31,NW,315,1.7,2.0,67,0.00,,SCT044,0.02,VWS V13.01,2013-08-12 18:09:00,
2013-08-12 14:14:00,79.1,67.0,30.31,WSW,248,2.2,2.2,66,0.00,,SCT044,0.02,VWS V13.01,2013-08-12 18:14:00,
2013-08-12 14:19:00,79.1,66.6,30.31,WNW,292,1.1,2.0,67,0.00,,SCT044,0.02,VWS V13.01,2013-08-12 18:19:00,
2013-08-12 14:24:00,78.9,67.0,30.31,NW,315,1.1,2.0,67,0.00,,SCT044,0.02,VWS V13.01,2013-08-12 18:24:00,
2013-08-12 14:29:00,78.8,66.7,30.32,West,270,5.3,5.3,67,0.00,,SCT044,0.02,VWS V13.01,2013-08-12 18:29:00,
2013-08-12 14:35:00,78.8,66.9,30.31,WNW,292,1.3,2.0,67,0.00,,SCT044,0.02,VWS V13.01,2013-08-12 18:35:00,
2013-08-12 14:40:00,78.8,66.6,30.31,West,270,1.1,2.0,67,0.00,,SCT044,0.02,VWS V13.01,2013-08-12 18:40:00,
2013-08-12 14:45:00,78.8,66.5,30.30,West,270,3.3,3.3,67,0.00,,CLR,0.02,VWS V13.01,2013-08-12 18:45:00,
2013-08-12 14:50:00,78.9,66.3,30.31,NW,315,4.9,4.9,65,0.00,,CLR,0.02,VWS V13.01,2013-08-12 18:50:00,
2013-08-12 14:55:00,79.3,66.3,30.30,West,270,6.2,6.2,64,0.00,,CLR,0.02,VWS V13.01,2013-08-12 18:55:00,
2013-08-12 15:00:00,79.3,66.1,30.30,SSE,158,4.4,4.4,64,0.00,,CLR,0.02,VWS V13.01,2013-08-12 19:00:00,
2013-08-12 15:05:00,79.5,66.7,30.30,NW,315,2.9,2.9,65,0.00,,CLR,0.02,VWS V13.01,2013-08-12 19:05:00,
2013-08-12 15:10:00,79.8,66.0,30.30,West,270,2.6,2.6,62,0.00,,CLR,0.02,VWS V13.01,2013-08-12 19:10:00,
2013-08-12 15:15:00,79.8,65.2,30.30,North,0,4.9,4.9,61,0.00,,CLR,0.02,VWS V13.01,2013-08-12 19:15:00,
2013-08-12 15:21:00,79.7,64.7,30.30,NNW,338,3.8,3.8,60,0.00,,CLR,0.02,VWS V13.01,2013-08-12 19:21:00,
2013-08-12 15:26:00,79.3,64.7,30.30,North,0,57.0,57.0,61,0.00,,CLR,0.02,VWS V13.01,2013-08-12 19:26:00,
2013-08-12 15:31:00,79.5,65.8,30.30,WSW,248,5.1,5.1,62,0.00,,CLR,0.02,VWS V13.01,2013-08-12 19:31:00,
2013-08-12 15:36:00,79.7,65.3,30.30,WSW,248,1.3,2.0,62,0.00,,SCT049,0.02,VWS V13.01,2013-08-12 19:36:00,
2013-08-12 15:41:00,79.8,66.1,30.29,NW,315,57.0,57.0,63,0.00,,SCT060,0.02,VWS V13.01,2013-08-12 19:41:00,
2013-08-12 15:46:00,80.2,66.2,30.29,North,0,57.0,57.0,63,0.00,,SCT060,0.02,VWS V13.01,2013-08-12 19:46:00,
2013-08-12 15:51:00,80.4,66.7,30.29,NW,315,5.1,5.1,62,0.00,,SCT060,0.02,VWS V13.01,2013-08-12 19:51:00,
2013-08-12 15:56:00,80.2,66.0,30.29,SW,225,57.0,57.0,61,0.00,,SCT060,0.02,VWS V13.01,2013-08-12 19:56:00,
2013-08-12 16:01:00,80.2,65.8,30.28,NW,315,4.4,4.4,62,0.00,,SCT110,0.02,VWS V13.01,2013-08-12 20:01:00,
2013-08-12 16:06:00,80.2,66.0,30.28,South,180,3.1,3.1,62,0.00,,SCT110,0.02,VWS V13.01,2013-08-12 20:06:00,
2013-08-12 16:11:00,80.2,65.7,30.28,SSW,202,57.0,57.0,61,0.00,,SCT110,0.02,VWS V13.01,2013-08-12 20:11:00,
2013-08-12 16:16:00,80.2,66.2,30.28,North,0,1.3,2.0,61,0.00,,SCT110,0.02,VWS V13.01,2013-08-12 20:16:00,
2013-08-12 16:21:00,80.2,65.6,30.28,SW,225,0.8,2.0,62,0.00,,SCT110,0.02,VWS V13.01,2013-08-12 20:21:00,
2013-08-12 16:26:00,79.7,66.0,30.28,North,0,57.0,57.0,63,0.00,,SCT110,0.02,VWS V13.01,2013-08-12 20:26:00,
2013-08-12 16:31:00,79.7,66.1,30.28,SW,225,57.0,57.0,63,0.00,,CLR,0.02,VWS V13.01,2013-08-12 20:31:00,
2013-08-12 16:36:00,79.3,66.3,30.28,SW,225,57.0,57.0,65,0.00,,CLR,0.02,VWS V13.01,2013-08-12 20:36:00,
2013-08-12 16:41:00,78.9,66.2,30.28,North,0,57.0,57.0,65,0.00,,CLR,0.02,VWS V13.01,2013-08-12 20:41:00,
2013-08-12 16:46:00,78.9,66.6,30.27,SW,225,57.0,57.0,65,0.00,,CLR,0.02,VWS V13.01,2013-08-12 20:46:00,
2013-08-12 16:51:00,78.6,66.7,30.27,SW,225,0.8,2.0,67,0.00,,CLR,0.02,VWS V13.01,2013-08-12 20:51:00,
2013-08-12 16:56:00,78.6,67.2,30.27,SW,225,0.8,2.0,67,0.00,,CLR,0.02,VWS V13.01,2013-08-12 20:56:00,
2013-08-12 17:01:00,78.4,67.0,30.27,South,180,57.0,57.0,68,0.00,,CLR,0.02,VWS V13.01,2013-08-12 21:01:00,
2013-08-12 17:06:00,78.4,66.6,30.27,South,180,57.0,57.0,68,0.00,,CLR,0.02,VWS V13.01,2013-08-12 21:06:00,
2013-08-12 17:11:00,77.9,66.9,30.27,South,180,57.0,57.0,69,0.00,,CLR,0.02,VWS V13.01,2013-08-12 21:11:00,
2013-08-12 17:16:00,77.9,67.1,30.27,North,0,57.0,57.0,69,0.00,,CLR,0.02,VWS V13.01,2013-08-12 21:16:00,
2013-08-12 17:21:00,77.5,66.9,30.27,South,180,57.0,57.0,70,0.00,,CLR,0.02,VWS V13.01,2013-08-12 21:21:00,
2013-08-12 17:26:00,77.5,67.2,30.27,South,180,57.0,57.0,70,0.00,,CLR,0.02,VWS V13.01,2013-08-12 21:26:00,
2013-08-12 17:31:00,77.1,67.2,30.27,WSW,248,57.0,57.0,71,0.00,,CLR,0.02,VWS V13.01,2013-08-12 21:31:00,
2013-08-12 17:36:00,77.1,67.4,30.27,WSW,248,57.0,57.0,71,0.00,,CLR,0.02,VWS V13.01,2013-08-12 21:36:00,
2013-08-12 17:41:00,76.8,67.1,30.27,WSW,248,57.0,57.0,72,0.00,,CLR,0.02,VWS V13.01,2013-08-12 21:41:00,
2013-08-12 17:46:00,76.8,67.5,30.27,WSW,248,57.0,57.0,72,0.00,,CLR,0.02,VWS V13.01,2013-08-12 21:46:00,
2013-08-12 17:51:00,76.6,67.3,30.27,WSW,248,57.0,57.0,73,0.00,,CLR,0.02,VWS V13.01,2013-08-12 21:51:00,
2013-08-12 17:56:00,76.4,67.3,30.27,WSW,248,57.0,57.0,73,0.00,,CLR,0.02,VWS V13.01,2013-08-12 21:56:00,
2013-08-12 18:01:00,76.2,67.2,30.27,WSW,248,57.0,57.0,74,0.00,,CLR,0.02,VWS V13.01,2013-08-12 22:01:00,
2013-08-12 18:07:00,76.1,67.0,30.28,WSW,248,57.0,57.0,74,0.00,,CLR,0.02,VWS V13.01,2013-08-12 22:07:00,
2013-08-12 18:12:00,75.7,67.2,30.27,WSW,248,57.0,57.0,75,0.00,,CLR,0.02,VWS V13.01,2013-08-12 22:12:00,
2013-08-12 18:17:00,75.5,67.2,30.27,North,0,57.0,57.0,76,0.00,,CLR,0.02,VWS V13.01,2013-08-12 22:17:00,
2013-08-12 18:22:00,75.0,67.6,30.27,WSW,248,57.0,57.0,77,0.00,,CLR,0.02,VWS V13.01,2013-08-12 22:22:00,
2013-08-12 18:27:00,74.8,67.7,30.28,WSW,248,57.0,57.0,78,0.00,,CLR,0.02,VWS V13.01,2013-08-12 22:27:00,
2013-08-12 18:32:00,74.6,67.5,30.28,North,0,57.0,57.0,78,0.00,,CLR,0.02,VWS V13.01,2013-08-12 22:32:00,
2013-08-12 18:37:00,74.4,67.5,30.27,WSW,248,57.0,57.0,78,0.00,,CLR,0.02,VWS V13.01,2013-08-12 22:37:00,
2013-08-12 18:42:00,74.4,67.4,30.27,WSW,248,57.0,57.0,78,0.00,,CLR,0.02,VWS V13.01,2013-08-12 22:42:00,
2013-08-12 18:47:00,74.1,67.5,30.27,WSW,248,57.0,57.0,79,0.00,,CLR,0.02,VWS V13.01,2013-08-12 22:47:00,
2013-08-12 18:52:00,74.1,67.3,30.27,WSW,248,57.0,57.0,79,0.00,,CLR,0.02,VWS V13.01,2013-08-12 22:52:00,
2013-08-12 18:57:00,74.1,67.2,30.27,WSW,248,57.0,57.0,79,0.00,,CLR,0.02,VWS V13.01,2013-08-12 22:57:00,
2013-08-12 19:02:00,74.1,67.0,30.27,WSW,248,57.0,57.0,79,0.00,,CLR,0.02,VWS V13.01,2013-08-12 23:02:00,
2013-08-12 19:07:00,73.4,66.7,30.27,WSW,248,57.0,57.0,80,0.00,,CLR,0.02,VWS V13.01,2013-08-12 23:07:00,
2013-08-12 19:12:00,73.2,67.0,30.27,WSW,248,57.0,57.0,81,0.00,,CLR,0.02,VWS V13.01,2013-08-12 23:12:00,
2013-08-12 19:17:00,72.6,67.0,30.27,SSW,202,57.0,57.0,81,0.00,,CLR,0.02,VWS V13.01,2013-08-12 23:17:00,
2013-08-12 19:22:00,72.6,66.3,30.27,SSW,202,57.0,57.0,81,0.00,,CLR,0.02,VWS V13.01,2013-08-12 23:22:00,
2013-08-12 19:27:00,72.6,66.5,30.27,SSW,202,57.0,57.0,81,0.00,,CLR,0.02,VWS V13.01,2013-08-12 23:27:00,
2013-08-12 19:32:00,72.3,66.5,30.26,North,0,57.0,57.0,82,0.02,,CLR,0.04,VWS V13.01,2013-08-12 23:32:00,
2013-08-12 19:37:00,72.1,66.3,30.26,SSW,202,57.0,57.0,82,0.02,,CLR,0.04,VWS V13.01,2013-08-12 23:37:00,
2013-08-12 19:42:00,72.1,66.5,30.25,SSW,202,57.0,57.0,82,0.02,,RA,0.04,VWS V13.01,2013-08-12 23:42:00,
2013-08-12 19:47:00,71.9,66.3,30.25,SSW,202,57.0,57.0,83,0.02,,RA,0.04,VWS V13.01,2013-08-12 23:47:00,
2013-08-12 19:52:00,71.7,66.2,30.25,SSW,202,57.0,57.0,83,0.02,,RA,0.04,VWS V13.01,2013-08-12 23:52:00,
2013-08-12 19:57:00,71.4,66.2,30.25,SSW,202,57.0,57.0,83,0.02,,RA,0.04,VWS V13.01,2013-08-12 23:57:00,
2013-08-12 20:02:00,71.6,66.0,30.25,SSW,202,57.0,57.0,83,0.02,,-RA,0.04,VWS V13.01,2013-08-13 00:02:00,
2013-08-12 20:07:00,71.2,66.1,30.25,SSW,202,57.0,57.0,83,0.02,,-RA,0.04,VWS V13.01,2013-08-13 00:07:00,
2013-08-12 20:12:00,71.2,66.1,30.25,SSW,202,57.0,57.0,84,0.02,,-RA,0.04,VWS V13.01,2013-08-13 00:12:00,
2013-08-12 20:17:00,71.2,65.7,30.25,SSW,202,57.0,57.0,84,0.02,,-RA,0.04,VWS V13.01,2013-08-13 00:17:00,
2013-08-12 20:22:00,70.8,65.7,30.25,SSW,202,57.0,57.0,85,0.02,,-RA,0.04,VWS V13.01,2013-08-13 00:22:00,
2013-08-12 20:27:00,70.7,65.8,30.25,SSW,202,57.0,57.0,85,0.02,,-RA,0.04,VWS V13.01,2013-08-13 00:27:00,
2013-08-12 20:32:00,70.5,65.6,30.25,SSW,202,57.0,57.0,85,0.00,,-RA,0.04,VWS V13.01,2013-08-13 00:32:00,
2013-08-12 20:37:00,70.3,65.6,30.25,SSW,202,57.0,57.0,85,0.00,,-RA,0.04,VWS V13.01,2013-08-13 00:37:00,
2013-08-12 20:42:00,70.1,65.4,30.25,North,0,57.0,57.0,85,0.00,,-RA,0.04,VWS V13.01,2013-08-13 00:42:00,
2013-08-12 20:47:00,70.1,65.7,30.25,SSW,202,57.0,57.0,85,0.00,,-RA,0.04,VWS V13.01,2013-08-13 00:47:00,
2013-08-12 20:52:00,69.9,65.5,30.25,SSW,202,57.0,57.0,86,0.00,,-RA,0.04,VWS V13.01,2013-08-13 00:52:00,
2013-08-12 20:57:00,69.9,65.5,30.25,South,180,57.0,57.0,86,0.00,,-RA,0.04,VWS V13.01,2013-08-13 00:57:00,
2013-08-12 21:02:00,69.9,65.4,30.25,South,180,57.0,57.0,86,0.00,,,0.04,VWS V13.01,2013-08-13 01:02:00,
2013-08-12 21:07:00,69.6,65.2,30.25,South,180,57.0,57.0,86,0.00,,,0.04,VWS V13.01,2013-08-13 01:07:00,
2013-08-12 21:12:00,69.6,65.2,30.26,South,180,57.0,57.0,86,0.00,,,0.04,VWS V13.01,2013-08-13 01:12:00,
2013-08-12 21:17:00,69.6,65.2,30.26,SSW,202,57.0,57.0,86,0.00,,,0.04,VWS V13.01,2013-08-13 01:17:00,
2013-08-12 21:22:00,69.6,65.2,30.26,SSW,202,57.0,57.0,86,0.00,,,0.04,VWS V13.01,2013-08-13 01:22:00,
2013-08-12 21:27:00,69.6,65.2,30.26,SSW,202,57.0,57.0,86,0.00,,,0.04,VWS V13.01,2013-08-13 01:27:00,
2013-08-12 21:32:00,69.6,65.6,30.26,SSW,202,57.0,57.0,86,0.00,,,0.04,VWS V13.01,2013-08-13 01:32:00,
2013-08-12 21:37:00,69.6,65.6,30.25,SW,225,57.0,57.0,87,0.00,,,0.04,VWS V13.01,2013-08-13 01:37:00,
2013-08-12 21:42:00,69.4,65.4,30.26,SW,225,57.0,57.0,87,0.00,,,0.04,VWS V13.01,2013-08-13 01:42:00,
2013-08-12 21:47:00,69.4,65.4,30.25,SW,225,57.0,57.0,87,0.00,,,0.04,VWS V13.01,2013-08-13 01:47:00,
2013-08-12 21:52:00,69.4,65.4,30.26,SW,225,57.0,57.0,87,0.00,,,0.04,VWS V13.01,2013-08-13 01:52:00,
2013-08-12 21:57:00,69.4,65.4,30.26,SW,225,57.0,57.0,87,0.00,,,0.04,VWS V13.01,2013-08-13 01:57:00,
2013-08-12 22:02:00,69.2,65.2,30.26,WSW,248,57.0,57.0,87,0.00,,,0.04,VWS V13.01,2013-08-13 02:02:00,
2013-08-12 22:07:00,69.2,65.0,30.26,SW,225,57.0,57.0,87,0.00,,,0.04,VWS V13.01,2013-08-13 02:07:00,
2013-08-12 22:12:00,69.0,65.0,30.26,SSW,202,57.0,57.0,87,0.00,,,0.04,VWS V13.01,2013-08-13 02:12:00,
2013-08-12 22:17:00,69.0,65.0,30.25,SSW,202,1.3,2.0,87,0.00,,,0.04,VWS V13.01,2013-08-13 02:17:00,
2013-08-12 22:22:00,69.0,65.2,30.25,SSW,202,1.3,2.0,88,0.00,,,0.04,VWS V13.01,2013-08-13 02:22:00,
2013-08-12 22:27:00,69.0,65.2,30.25,South,180,1.3,2.0,88,0.00,,,0.04,VWS V13.01,2013-08-13 02:27:00,
2013-08-12 22:32:00,68.9,65.2,30.24,SSW,202,1.3,2.0,88,0.00,,,0.04,VWS V13.01,2013-08-13 02:32:00,
2013-08-12 22:37:00,68.9,65.2,30.25,SSW,202,1.3,2.0,88,0.00,,,0.04,VWS V13.01,2013-08-13 02:37:00,
2013-08-12 22:43:00,68.7,65.2,30.24,SSW,202,1.3,2.0,88,0.00,,,0.04,VWS V13.01,2013-08-13 02:43:00,
2013-08-12 22:48:00,68.7,65.0,30.24,South,180,1.3,2.0,88,0.00,,,0.04,VWS V13.01,2013-08-13 02:48:00,
2013-08-12 22:53:00,68.7,65.0,30.24,South,180,1.3,2.0,88,0.00,,,0.04,VWS V13.01,2013-08-13 02:53:00,
2013-08-12 22:58:00,68.5,65.0,30.24,South,180,1.3,2.0,88,0.00,,,0.04,VWS V13.01,2013-08-13 02:58:00,
2013-08-12 23:03:00,68.5,64.8,30.25,South,180,1.3,2.0,88,0.00,,,0.04,VWS V13.01,2013-08-13 03:03:00,
2013-08-12 23:08:00,68.5,64.8,30.25,SSE,158,1.3,2.0,88,0.00,,,0.04,VWS V13.01,2013-08-13 03:08:00,
2013-08-12 23:13:00,68.3,64.8,30.25,South,180,1.3,2.0,88,0.00,,,0.04,VWS V13.01,2013-08-13 03:13:00,
2013-08-12 23:18:00,68.5,64.4,30.24,South,180,1.3,2.0,88,0.00,,,0.04,VWS V13.01,2013-08-13 03:18:00,
2013-08-12 23:23:00,68.1,64.4,30.24,South,180,1.3,2.0,88,0.00,,,0.04,VWS V13.01,2013-08-13 03:23:00,
2013-08-12 23:28:00,68.1,64.4,30.24,South,180,1.3,2.0,88,0.00,,,0.04,VWS V13.01,2013-08-13 03:28:00,
2013-08-12 23:33:00,68.1,64.3,30.24,South,180,1.3,2.0,88,0.00,,,0.04,VWS V13.01,2013-08-13 03:33:00,
2013-08-12 23:38:00,68.0,64.1,30.24,South,180,1.3,2.0,88,0.00,,,0.04,VWS V13.01,2013-08-13 03:38:00,
2013-08-12 23:43:00,67.8,64.1,30.24,South,180,1.3,2.0,88,0.00,,,0.04,VWS V13.01,2013-08-13 03:43:00,
2013-08-12 23:48:00,67.8,64.1,30.24,South,180,1.3,2.0,88,0.00,,,0.04,VWS V13.01,2013-08-13 03:48:00,
2013-08-12 23:53:00,67.8,63.9,30.24,South,180,57.0,57.0,88,0.00,,,0.04,VWS V13.01,2013-08-13 03:53:00,
2013-08-12 23:58:00,67.6,63.9,30.24,South,180,57.0,57.0,88,0.00,,,0.04,VWS V13.01,2013-08-13 03:58:00,